sat.trackr.live / text

‹ back to catalog

CUTE-1.7+APD II (CO-65)

NORAD 32785 · 2008-021C

PAYLOAD ACTIVE UNKNOWN

§ Identity

Operator
Country
JPN
Launch date
2008-04-28
Launch site
SRILR
Launch vehicle
Mass (kg)
RCS (m²)
0.10

Purposes: comms, tech_demo

External: N2YO · Heavens-Above · Gunter

§ Orbital elements

Epoch: 2026-09-20T05:14:56.995008Z

Period
95.35 min
Inclination
97.8388°
Eccentricity
0.0010384
Mean motion
15.10202048 rev/d
Perigee alt
528.4 km
Apogee alt
542.8 km
Semi-major
6,913.7 km
B*
1.9982e-4
RAAN
246.7226°
Arg perigee
69.6600°
Mean anomaly
290.5743°
Rev number
99,953

§ Raw data

CUTE-1.7+APD II (CO-65)1 32785U 08021C   26263.21871522  .00003200  00000+0  19982-3 0  99992 32785  97.8388 246.7226 0010384  69.6600 290.5743 15.10202048999530

JSON: /api/v1/satellites/32785 · /tle

For live sub-satellite position, see the globe view (requires WebGL).

§ Visibility from observer

Set your observer location to see the next 7 days of passes ≥ 10°. The values pass through the URL so the page stays shareable.

No JS? Fill the form by hand. The geolocation button needs JavaScript.

§ Radio — SatNOGS DB

ModeDescriptionDownlinkUplink
GMSK Mode L/U Digipeater 437.475 MHz 1.268 GHz
CW Mode U TLM 1 437.275 MHz
AFSK Mode U TLM 2 437.475 MHz
CW PE0SAT - CW Beacon 437.275 MHz

4 transmitters · refreshed weekly from db.satnogs.org